Terminal Aerodrome Forecast
Issued by NWS Wilmington, OH

Current Version | Previous Version | Graphics & Text | Print | Product List | Glossary On
Versions: 1 2 3 4 5 6 7 8 9 10 11 12 13 14 15 16 17 18 19 20 21 22 23 24 25
000
FTUS41 KILN 220900 AAA
TAFILN
TAF AMD
KILN 220901Z 2209/2306 09005KT P6SM BKN045
      TEMPO 2209/2210 5SM BR
     FM221200 12007KT P6SM SCT015 BKN040
     FM221800 12010KT P6SM SCT035 BKN150
     FM230000 12010KT P6SM SCT008 BKN080
     FM230500 12010KT 5SM -RA BR SCT008 BKN025=

USA.gov is the U.S. government's official web portal to all federal, state and local government web resources and services.